STARLINK-11255, 60730

Orbit data source: Space-Track

STARLINK-11255, 60730 is a payload satellite owned by SpaceX/Seattle (US) in LEO that was launched on Wed, 28 Aug 2024 UTC via an FALCON 9 launch vehicle from the Air Force Eastern Test Range (AFETR). Payload-class satellites include a variety of spacecraft equipped with specific instruments for various scientific and technological missions. These include communications satellites like Starlink; space stations such as the ISS; scientific satellites like the Hubble; Earth observation satellites from companies like Planet Labs, Umbra, and HawkEye 360; GPS; miniature CubeSats for education and research; and military/defense satellites.

Loading next visibility...
Identifier
60730, 2024-152L
Orbit
LEO
Last TLE update
22 hours ago
Origin
Manufacturer
SpaceX/Seattle
Mission
Operational Commercial Communications
Bus & Motor
STARLINK V2M, Unknown motor
Mass
730 kg wet, ~700 kg dry
Launch date (UTC)
2024-08-28 (8 months ago)
Launch vehicle
FALCON 9
Launch site
Air Force Eastern Test Range (AFETR)
Object type
Payload
Rocket body
Debris
Shape & HBR
Box + 2 Pan, 29 m
Radar Cross Section
36.964 m², Large (>1 m²)

Expand to show TLE details & history

TLE from 22 hours ago
0 STARLINK-11255
1 60730U 24152L   25114.73929189  .00004076  00000-0  38476-4 0  9990
2 60730  53.1555 248.3209 0001487  66.7210 293.3965 15.69720352 38752
Epoch: 2025-04-24T17:44Z
Definitive object data (Epoch: 2025-04-24T17:44:34.819Z)
Latitude
0.00005°
Longitude
129.16945°
Altitude
360.214 km
Speed
7.695 km/s
True Right ascension
16h 33m 17s
True Declination
0° 00' 00"
Sunlit
Object was in full shadow at TLE epoch
Visualization TLE readout
Latitude
48.56389°
Longitude
-112.89669°
Altitude
364.395 km
Speed
7.697 km/s
Apparent Right ascension
06h 28m 06s
Apparent Declination
26° 17' 49"
Sunlit
Object is in daylight
Visualization observer readout
Local Sidereal Time
22:51:28
Azimuth
54.885° ENE
Elevation
0.164°
Doppler factor
1
Orbital elements
Apogee altitude
360.961 km
Perigee altitude
358.957 km
Semi-major axis
6,738.096 km
Eccentricity
0.0001487
Inclination
53.1555°
RAAN
248.3209°
Arg. of periapsis
66.721°
True anomaly
293.38086°
Mean anomaly
293.3965°
Eccentric anomaly
293.38868°
Mean motion
3.92408 °/min
BSTAR
0.000038476
Orbital period
91.74 mins
Loading maneuver chart data...
Loading SW <> Apogee altitude chart data...
Loading historical data...
Loading historical data...
Loading historical data...
Loading historical data...
Loading historical data...
Loading historical data...
Loading historical data...

STARLINK-11255 Visibility forecast

Observer location: undefined°, undefined°

Span
Click to sort rows by Start time (UTC) header in descending order
Start Az.
Max El. time (UTC)
Max El. Az.
Max El.
End time (UTC)
End Az.
4 mins2025-04-25 18:43:19.880Z283.144° WNW2025-04-25 18:44:19.880Z241.334° WSW35.577°2025-04-25 18:47:19.880Z149.165° SSE
4 mins2025-04-26 11:12:19.880Z225.436° WSW2025-04-26 11:13:19.880Z200.052° SSW44.551°2025-04-26 11:16:19.880Z51.023° ENE
|